,,,PA_Meas_PMT16A,,PR_Meas_QMR101_102,,RH_Meas_QMH101,,SR_Meas_QMS101,,TA_Meas_QMH101,,GenWind,,GenWind,
date,time,status,PA,status,PR,status,RH,status,SR,status,TA,status,DirAvg,status,SpdAvg,
2012-04-09, 00:00:04,VALID,1005.26,VALID,0,VALID,85.2604,VALID,0,VALID,25.8629,VALID,325,VALID,0.265625,
2012-04-09, 00:01:04,VALID,1005.24,VALID,0,VALID,85.3443,VALID,0,VALID,25.8843,VALID,324,VALID,0.408984,
2012-04-09, 00:02:04,VALID,1005.27,VALID,0,VALID,85.4358,VALID,0,VALID,25.8648,VALID,341,VALID,0.699609,
2012-04-09, 00:03:04,VALID,1005.27,VALID,0,VALID,85.2299,VALID,0,VALID,25.8648,VALID,351,VALID,0.640625,
2012-04-09, 00:04:04,VALID,1005.26,VALID,0,VALID,85.2756,VALID,0,VALID,25.8434,VALID,5,VALID,0.759375,
2012-04-09, 00:05:04,VALID,1005.22,VALID,0,VALID,85.2604,VALID,0,VALID,25.8863,VALID,344,VALID,0.599219,
2012-04-09, 00:06:04,VALID,1005.25,VALID,0,VALID,85.3748,VALID,0,VALID,25.8239,VALID,339,VALID,0.638672,
2012-04-09, 00:07:04,VALID,1005.21,VALID,0,VALID,85.474,VALID,0,VALID,25.8044,VALID,339,VALID,0.380469,
2012-04-09, 00:08:04,VALID,1005.17,VALID,0,VALID,85.5045,VALID,0,VALID,25.7674,VALID,340,VALID,0.861328,
2012-04-09, 00:09:04,VALID,1005.2,VALID,0,VALID,85.6189,VALID,0.0815089,VALID,25.7655,VALID,355,VALID,0.730469,
2012-04-09, 00:10:04,VALID,1005.18,VALID,0,VALID,85.6189,VALID,0.0815089,VALID,25.7265,VALID,337,VALID,0.908594,
2012-04-09, 00:11:04,VALID,1005.16,VALID,0,VALID,85.6876,VALID,0.0815089,VALID,25.7265,VALID,359,VALID,0.764453,
2012-04-09, 00:12:04,VALID,1005.15,VALID,0,VALID,85.7791,VALID,0.0815089,VALID,25.6876,VALID,351,VALID,0.513672,
2012-04-09, 00:13:04,VALID,1005.16,VALID,0,VALID,85.8707,VALID,0.0815089,VALID,25.6876,VALID,347,VALID,0.619922,
2012-04-09, 00:14:04,VALID,1005.13,VALID,0,VALID,85.9012,VALID,0.0815089,VALID,25.6486,VALID,340,VALID,0.513281,
2012-04-09, 00:15:04,VALID,1005.1,VALID,0,VALID,85.9699,VALID,0.0815089,VALID,25.6272,VALID,343,VALID,0.61875,
2012-04-09, 00:16:04,VALID,1005.09,VALID,0,VALID,86.0156,VALID,0,VALID,25.6486,VALID,340,VALID,0.346484,
2012-04-09, 00:17:04,VALID,1005.1,VALID,0,VALID,85.9241,VALID,0,VALID,25.6272,VALID,335,VALID,0.46875,
2012-04-09, 00:18:04,VALID,1005.06,VALID,0,VALID,85.9088,VALID,0,VALID,25.6272,VALID,349,VALID,0.720312,
2012-04-09, 00:19:04,VALID,1005.04,VALID,0,VALID,85.7562,VALID,0.0815089,VALID,25.6486,VALID,339,VALID,0.745703,
2012-04-09, 00:20:04,VALID,1005.03,VALID,0,VALID,85.5503,VALID,0.0815089,VALID,25.6876,VALID,342,VALID,0.727734,
2012-04-09, 00:21:04,VALID,1005,VALID,0,VALID,85.535,VALID,0,VALID,25.7071,VALID,350,VALID,0.489453,
2012-04-09, 00:22:04,VALID,1004.98,VALID,0,VALID,85.3824,VALID,0,VALID,25.7071,VALID,325,VALID,1.34141,
2012-04-09, 00:23:04,VALID,1004.95,VALID,0,VALID,85.329,VALID,0,VALID,25.785,VALID,312,VALID,0.39375,
2012-04-09, 00:24:04,VALID,1004.91,VALID,0,VALID,85.2833,VALID,0,VALID,25.746,VALID,32,VALID,0.580078,
2012-04-09, 00:25:04,VALID,1004.92,VALID,0,VALID,85.2527,VALID,0,VALID,25.7265,VALID,360,VALID,0.651953,
2012-04-09, 00:26:04,VALID,1004.9,VALID,0,VALID,85.0696,VALID,0.0815089,VALID,25.746,VALID,349,VALID,1.23594,
2012-04-09, 00:27:04,VALID,1004.88,VALID,0,VALID,85.1002,VALID,0.0815089,VALID,25.744,VALID,325,VALID,0.130469,
2012-04-09, 00:28:04,VALID,1004.88,VALID,0,VALID,85.1002,VALID,0,VALID,25.746,VALID,330,VALID,0.292578,
2012-04-09, 00:29:04,VALID,1004.87,VALID,0,VALID,84.9857,VALID,0.0815089,VALID,25.7246,VALID,341,VALID,1.00859,
2012-04-09, 00:30:04,VALID,1004.8,VALID,0,VALID,84.9018,VALID,0,VALID,25.7674,VALID,328,VALID,0.669141,
2012-04-09, 00:31:04,VALID,1004.8,VALID,0,VALID,84.8179,VALID,0,VALID,25.7674,VALID,342,VALID,0.808984,
2012-04-09, 00:32:04,VALID,1004.79,VALID,0,VALID,84.7569,VALID,0,VALID,25.746,VALID,357,VALID,0.700781,
2012-04-09, 00:33:04,VALID,1004.75,VALID,0,VALID,84.5433,VALID,0,VALID,25.7655,VALID,352,VALID,1.1375,
2012-04-09, 00:34:04,VALID,1004.75,VALID,0,VALID,84.3983,VALID,0,VALID,25.785,VALID,339,VALID,0.577734,
2012-04-09, 00:35:04,VALID,1004.72,VALID,0,VALID,84.5661,VALID,0,VALID,25.785,VALID,347,VALID,0.513281,
2012-04-09, 00:36:04,VALID,1004.67,VALID,0,VALID,84.0626,VALID,0,VALID,25.7869,VALID,351,VALID,0.980078,
2012-04-09, 00:37:04,VALID,1004.65,VALID,0,VALID,83.8414,VALID,0,VALID,25.8239,VALID,344,VALID,0.712891,
2012-04-09, 00:38:04,VALID,1004.6,VALID,0,VALID,83.6354,VALID,0,VALID,25.8434,VALID,332,VALID,0.184375,
2012-04-09, 00:39:04,VALID,1004.6,VALID,0,VALID,83.643,VALID,0,VALID,25.8629,VALID,9,VALID,0.985156,
2012-04-09, 00:40:04,VALID,1004.55,VALID,0,VALID,83.1624,VALID,0,VALID,25.9213,VALID,346,VALID,0.770703,
2012-04-09, 00:41:04,VALID,1004.55,VALID,0,VALID,83.0327,VALID,0,VALID,25.9817,VALID,336,VALID,0.140625,
2012-04-09, 00:42:04,VALID,1004.52,VALID,0,VALID,83.1319,VALID,0,VALID,25.9797,VALID,321,VALID,0.277734,
2012-04-09, 00:43:04,VALID,1004.53,VALID,0,VALID,83.2235,VALID,0,VALID,25.9622,VALID,316,VALID,0.45625,
2012-04-09, 00:44:04,VALID,1004.51,VALID,0,VALID,83.1624,VALID,0,VALID,25.9602,VALID,316,VALID,0.398047,
2012-04-09, 00:45:04,VALID,1004.51,VALID,0,VALID,83.2921,VALID,0,VALID,25.9408,VALID,317,VALID,0.210547,
2012-04-09, 00:46:04,VALID,1004.48,VALID,0,VALID,83.5134,VALID,0,VALID,25.9213,VALID,317,VALID,0.0828125,
2012-04-09, 00:47:04,VALID,1004.49,VALID,0,VALID,83.582,VALID,0,VALID,25.9018,VALID,320,VALID,0.385938,
2012-04-09, 00:48:04,VALID,1004.49,VALID,0,VALID,83.7041,VALID,0,VALID,25.9232,VALID,321,VALID,0.221484,
2012-04-09, 00:49:04,VALID,1004.47,VALID,0,VALID,83.8185,VALID,0,VALID,25.8434,VALID,329,VALID,0.312891,
2012-04-09, 00:50:04,VALID,1004.45,VALID,0,VALID,83.8719,VALID,0,VALID,25.8239,VALID,338,VALID,0.0902344,
2012-04-09, 00:51:04,VALID,1004.44,VALID,0,VALID,83.9863,VALID,0,VALID,25.785,VALID,338,VALID,0.195313,
2012-04-09, 00:52:04,VALID,1004.45,VALID,0,VALID,84.1847,VALID,0,VALID,25.785,VALID,338,VALID,0,
2012-04-09, 00:53:04,VALID,1004.43,VALID,0,VALID,84.2839,VALID,0,VALID,25.7655,VALID,338,VALID,0.0847656,
2012-04-09, 00:54:04,VALID,1004.39,VALID,0,VALID,84.3983,VALID,0,VALID,25.746,VALID,341,VALID,0.541797,
2012-04-09, 00:55:04,VALID,1004.38,VALID,0,VALID,84.4059,VALID,0,VALID,25.7285,VALID,353,VALID,0.564453,
2012-04-09, 00:56:04,VALID,1004.35,VALID,0,VALID,84.5738,VALID,0,VALID,25.6876,VALID,350,VALID,0.543359,
2012-04-09, 00:57:04,VALID,1004.34,VALID,0,VALID,84.5356,VALID,0.0815089,VALID,25.6681,VALID,346,VALID,0.541797,
2012-04-09, 00:58:04,VALID,1004.33,VALID,0,VALID,84.6195,VALID,0,VALID,25.6895,VALID,346,VALID,0.333203,
2012-04-09, 00:59:04,VALID,1004.32,VALID,0,VALID,84.7416,VALID,0,VALID,25.6681,VALID,346,VALID,0.3125,
2012-04-09, 01:00:04,VALID,1004.32,VALID,0,VALID,84.8332,VALID,0,VALID,25.6486,VALID,345,VALID,0.213281,
2012-04-09, 01:01:04,VALID,1004.29,VALID,0,VALID,85.0239,VALID,0.0815089,VALID,25.5902,VALID,345,VALID,0.432422,
2012-04-09, 01:02:04,VALID,1004.29,VALID,0,VALID,85.3901,VALID,0,VALID,25.5727,VALID,345,VALID,0.523828,
2012-04-09, 01:03:04,VALID,1004.27,VALID,0,VALID,85.741,VALID,0,VALID,25.4734,VALID,345,VALID,0.561328,
2012-04-09, 01:04:04,VALID,1004.23,VALID,0,VALID,86.214,VALID,0,VALID,25.4169,VALID,344,VALID,0.332812,
2012-04-09, 01:05:04,VALID,1004.24,VALID,0,VALID,86.5573,VALID,0,VALID,25.3176,VALID,344,VALID,0.505469,
2012-04-09, 01:06:04,VALID,1004.23,VALID,0,VALID,86.9235,VALID,0,VALID,25.2397,VALID,344,VALID,0.61875,
2012-04-09, 01:07:04,VALID,1004.23,VALID,0,VALID,87.2973,VALID,0.0815089,VALID,25.1599,VALID,344,VALID,0.172266,
2012-04-09, 01:08:04,VALID,1004.25,VALID,0,VALID,87.5719,VALID,0,VALID,25.1034,VALID,344,VALID,0,
2012-04-09, 01:09:04,VALID,1004.25,VALID,0,VALID,87.8008,VALID,0.0815089,VALID,25.0644,VALID,344,VALID,0.400391,
2012-04-09, 01:10:04,VALID,1004.24,VALID,0,VALID,87.9381,VALID,0,VALID,25.006,VALID,344,VALID,0.169141,
2012-04-09, 01:11:04,VALID,1004.23,VALID,0,VALID,88.1899,VALID,0,VALID,24.9866,VALID,344,VALID,0.373047,
2012-04-09, 01:12:04,VALID,1004.2,VALID,0,VALID,88.3348,VALID,0,VALID,24.9282,VALID,344,VALID,0.347656,
2012-04-09, 01:13:04,VALID,1004.2,VALID,0,VALID,88.5332,VALID,0,VALID,24.8892,VALID,344,VALID,0.309766,
2012-04-09, 01:14:04,VALID,1004.19,VALID,0,VALID,88.6857,VALID,0,VALID,24.8911,VALID,344,VALID,0.323828,
2012-04-09, 01:15:04,VALID,1004.2,VALID,0,VALID,88.8383,VALID,0,VALID,24.8113,VALID,344,VALID,0.283203,
2012-04-09, 01:16:04,VALID,1004.13,VALID,0,VALID,89.113,VALID,0,VALID,24.751,VALID,344,VALID,0.217187,
2012-04-09, 01:17:04,VALID,1004.11,VALID,0,VALID,89.3342,VALID,0.0815089,VALID,24.714,VALID,344,VALID,0.202344,
2012-04-09, 01:18:04,VALID,1004.07,VALID,0,VALID,89.5936,VALID,0,VALID,24.6556,VALID,344,VALID,0.21875,
2012-04-09, 01:19:04,VALID,1004.08,VALID,0,VALID,89.8301,VALID,0,VALID,24.6574,VALID,344,VALID,0.394141,
2012-04-09, 01:20:04,VALID,1004.08,VALID,0,VALID,89.914,VALID,0,VALID,24.5972,VALID,344,VALID,0.110937,
2012-04-09, 01:21:04,VALID,1004.07,VALID,0,VALID,90.0132,VALID,0,VALID,24.6185,VALID,344,VALID,0.309766,
2012-04-09, 01:22:04,VALID,1004.04,VALID,0,VALID,90.0284,VALID,0,VALID,24.5777,VALID,344,VALID,0.272656,
2012-04-09, 01:23:04,VALID,1004.08,VALID,0,VALID,90.1886,VALID,0.0815089,VALID,24.5193,VALID,344,VALID,0.199609,
2012-04-09, 01:24:04,VALID,1004.07,VALID,0,VALID,90.2039,VALID,0,VALID,24.5193,VALID,344,VALID,0,
2012-04-09, 01:25:04,VALID,1004.07,VALID,0,VALID,90.3488,VALID,0,VALID,24.4998,VALID,344,VALID,0.0847656,
2012-04-09, 01:26:04,VALID,1004.05,VALID,0,VALID,90.4251,VALID,0,VALID,24.4998,VALID,344,VALID,0,
2012-04-09, 01:27:04,VALID,1004.05,VALID,0,VALID,90.4556,VALID,0,VALID,24.4998,VALID,344,VALID,0,
2012-04-09, 01:28:04,VALID,1004.04,VALID,0,VALID,90.4785,VALID,0,VALID,24.4998,VALID,344,VALID,0.121875,
2012-04-09, 01:29:04,VALID,1004.03,VALID,0,VALID,90.4633,VALID,0.0815089,VALID,24.5193,VALID,321,VALID,0.146094,
2012-04-09, 01:30:04,VALID,1004,VALID,0,VALID,90.1963,VALID,0,VALID,24.5796,VALID,321,VALID,0.221094,
2012-04-09, 01:31:04,VALID,1003.95,VALID,0,VALID,89.914,VALID,0,VALID,24.6185,VALID,321,VALID,0.464453,
2012-04-09, 01:32:04,VALID,1003.95,VALID,0,VALID,89.6393,VALID,0,VALID,24.6574,VALID,321,VALID,0.358203,
2012-04-09, 01:33:04,VALID,1003.94,VALID,0,VALID,89.4257,VALID,0,VALID,24.6574,VALID,321,VALID,0.428516,
2012-04-09, 01:34:04,VALID,1003.9,VALID,0,VALID,89.4563,VALID,0,VALID,24.6361,VALID,321,VALID,0.503906,
2012-04-09, 01:35:04,VALID,1003.88,VALID,0,VALID,89.5402,VALID,0,VALID,24.5796,VALID,321,VALID,0.575,
2012-04-09, 01:36:04,VALID,1003.85,VALID,0,VALID,89.7919,VALID,0,VALID,24.5406,VALID,323,VALID,0.658984,
2012-04-09, 01:37:04,VALID,1003.83,VALID,0,VALID,89.9216,VALID,0,VALID,24.4822,VALID,341,VALID,0.626562,
2012-04-09, 01:38:04,VALID,1003.8,VALID,0,VALID,90.2268,VALID,0,VALID,24.422,VALID,342,VALID,0.692187,
2012-04-09, 01:39:04,VALID,1003.75,VALID,0,VALID,90.3717,VALID,0.0815089,VALID,24.3812,VALID,347,VALID,0.471484,
2012-04-09, 01:40:04,VALID,1003.74,VALID,0,VALID,90.5014,VALID,0.0815089,VALID,24.3636,VALID,347,VALID,0.646875,
2012-04-09, 01:41:04,VALID,1003.71,VALID,0,VALID,90.6158,VALID,0,VALID,24.3246,VALID,347,VALID,0.548047,
2012-04-09, 01:42:04,VALID,1003.69,VALID,0,VALID,90.776,VALID,0,VALID,24.2857,VALID,347,VALID,0.623047,
2012-04-09, 01:43:04,VALID,1003.66,VALID,0,VALID,90.9363,VALID,0.0815089,VALID,24.2273,VALID,347,VALID,0.617188,
2012-04-09, 01:44:04,VALID,1003.59,VALID,0,VALID,91.0278,VALID,0.0815089,VALID,24.1671,VALID,347,VALID,0.619531,
2012-04-09, 01:45:04,VALID,1003.56,VALID,0,VALID,91.2109,VALID,0.0815089,VALID,24.1281,VALID,347,VALID,0.573828,
2012-04-09, 01:46:04,VALID,1003.56,VALID,0,VALID,91.4092,VALID,0.0815089,VALID,24.1087,VALID,347,VALID,0.474219,
2012-04-09, 01:47:04,VALID,1003.55,VALID,0,VALID,91.5161,VALID,0.0815089,VALID,24.0892,VALID,347,VALID,0.466016,
2012-04-09, 01:48:04,VALID,1003.5,VALID,0,VALID,91.4626,VALID,0.0815089,VALID,24.0892,VALID,347,VALID,0.435547,
2012-04-09, 01:49:04,VALID,1003.49,VALID,0,VALID,91.4398,VALID,0.0815089,VALID,24.0716,VALID,347,VALID,0.345313,
2012-04-09, 01:50:04,VALID,1003.48,VALID,0,VALID,91.5313,VALID,0,VALID,24.0716,VALID,347,VALID,0.478906,
2012-04-09, 01:51:04,VALID,1003.49,VALID,0,VALID,91.5466,VALID,0.0815089,VALID,24.0716,VALID,347,VALID,0.322266,
2012-04-09, 01:52:04,VALID,1003.46,VALID,0,VALID,91.5542,VALID,0.0815089,VALID,24.0892,VALID,347,VALID,0.493359,
2012-04-09, 01:53:04,VALID,1003.48,VALID,0,VALID,91.394,VALID,0,VALID,24.1513,VALID,347,VALID,0.560547,
2012-04-09, 01:54:04,VALID,1003.44,VALID,0,VALID,91.1499,VALID,0,VALID,24.13,VALID,347,VALID,0.421094,
2012-04-09, 01:55:04,VALID,1003.44,VALID,0,VALID,90.9897,VALID,0,VALID,24.1707,VALID,347,VALID,0.595312,
2012-04-09, 01:56:04,VALID,1003.42,VALID,0,VALID,90.86,VALID,0,VALID,24.1902,VALID,347,VALID,0.476172,
2012-04-09, 01:57:04,VALID,1003.39,VALID,0,VALID,90.7379,VALID,0,VALID,24.2097,VALID,347,VALID,0.498828,
2012-04-09, 01:58:04,VALID,1003.37,VALID,0,VALID,90.6769,VALID,0,VALID,24.2097,VALID,347,VALID,0.339453,
2012-04-09, 01:59:04,VALID,1003.38,VALID,0,VALID,90.6082,VALID,0,VALID,24.2097,VALID,347,VALID,0.267578,
2012-04-09, 02:00:04,VALID,1003.36,VALID,0,VALID,90.5319,VALID,0,VALID,24.2078,VALID,347,VALID,0.330859,
2012-04-09, 02:01:04,VALID,1003.36,VALID,0,VALID,90.5548,VALID,0,VALID,24.1884,VALID,347,VALID,0.415234,
2012-04-09, 02:02:04,VALID,1003.38,VALID,0,VALID,90.5167,VALID,0,VALID,24.2097,VALID,347,VALID,0.367578,
2012-04-09, 02:03:04,VALID,1003.42,VALID,0,VALID,90.5167,VALID,0,VALID,24.2097,VALID,347,VALID,0.470703,
2012-04-09, 02:04:04,VALID,1003.4,VALID,0,VALID,90.5319,VALID,0,VALID,24.1689,VALID,347,VALID,0.482031,
2012-04-09, 02:05:04,VALID,1003.41,VALID,0,VALID,90.6311,VALID,0,VALID,24.1494,VALID,347,VALID,0.489844,
2012-04-09, 02:06:04,VALID,1003.45,VALID,0,VALID,90.7455,VALID,0,VALID,24.1707,VALID,347,VALID,0.608594,
2012-04-09, 02:07:04,VALID,1003.44,VALID,0,VALID,90.6998,VALID,0,VALID,24.1689,VALID,347,VALID,0.464844,
2012-04-09, 02:08:04,VALID,1003.42,VALID,0,VALID,90.6082,VALID,0,VALID,24.1494,VALID,347,VALID,0.473437,
2012-04-09, 02:09:04,VALID,1003.42,VALID,0,VALID,90.4633,VALID,0,VALID,24.2486,VALID,336,VALID,0.827344,
2012-04-09, 02:10:04,VALID,1003.41,VALID,0,VALID,90.0284,VALID,0,VALID,24.307,VALID,352,VALID,1.21445,
2012-04-09, 02:11:04,VALID,1003.4,VALID,0,VALID,89.5707,VALID,0,VALID,24.3636,VALID,345,VALID,0.948047,
2012-04-09, 02:12:04,VALID,1003.39,VALID,0,VALID,89.1511,VALID,0,VALID,24.4025,VALID,357,VALID,1.0418,
2012-04-09, 02:13:04,VALID,1003.38,VALID,0,VALID,88.8154,VALID,0,VALID,24.4822,VALID,360,VALID,0.627734,
2012-04-09, 02:14:04,VALID,1003.37,VALID,0,VALID,88.6934,VALID,0,VALID,24.4804,VALID,358,VALID,0.663672,
2012-04-09, 02:15:04,VALID,1003.35,VALID,0,VALID,88.5942,VALID,0,VALID,24.4998,VALID,347,VALID,0.700391,
2012-04-09, 02:16:04,VALID,1003.31,VALID,0,VALID,88.3119,VALID,0,VALID,24.5406,VALID,348,VALID,1.2082,
2012-04-09, 02:17:04,VALID,1003.34,VALID,0,VALID,88.0373,VALID,0,VALID,24.599,VALID,348,VALID,0.615234,
2012-04-09, 02:18:04,VALID,1003.33,VALID,0,VALID,87.4804,VALID,0,VALID,24.6361,VALID,355,VALID,1.33711,
2012-04-09, 02:19:04,VALID,1003.32,VALID,0,VALID,86.8167,VALID,0,VALID,24.7548,VALID,5,VALID,0.969141,
2012-04-09, 02:20:04,VALID,1003.32,VALID,0,VALID,86.1453,VALID,0,VALID,24.8911,VALID,345,VALID,0.844922,
2012-04-09, 02:21:04,VALID,1003.35,VALID,0,VALID,85.8707,VALID,0.0815089,VALID,24.969,VALID,341,VALID,0.705078,
2012-04-09, 02:22:04,VALID,1003.34,VALID,0,VALID,85.5503,VALID,0,VALID,24.9885,VALID,343,VALID,0.960547,
2012-04-09, 02:23:04,VALID,1003.37,VALID,0,VALID,85.329,VALID,0,VALID,25.0469,VALID,345,VALID,0.678125,
2012-04-09, 02:24:04,VALID,1003.34,VALID,0,VALID,85.4435,VALID,0,VALID,25.0663,VALID,353,VALID,0.633594,
2012-04-09, 02:25:04,VALID,1003.36,VALID,0,VALID,85.4053,VALID,0,VALID,25.0663,VALID,348,VALID,0.714453,
2012-04-09, 02:26:04,VALID,1003.35,VALID,0,VALID,85.062,VALID,0,VALID,25.0663,VALID,348,VALID,1.1582,
2012-04-09, 02:27:05,VALID,1003.35,VALID,0,VALID,84.9323,VALID,0,VALID,25.0839,VALID,334,VALID,0.716016,
2012-04-09, 02:28:05,VALID,1003.34,VALID,0,VALID,84.9476,VALID,0,VALID,25.1248,VALID,341,VALID,0.626562,
2012-04-09, 02:29:05,VALID,1003.4,VALID,0,VALID,84.9857,VALID,0,VALID,25.1229,VALID,342,VALID,0.669141,
2012-04-09, 02:30:05,VALID,1003.38,VALID,0,VALID,84.8255,VALID,0,VALID,25.1248,VALID,336,VALID,0.646484,
2012-04-09, 02:31:05,VALID,1003.43,VALID,0,VALID,84.9171,VALID,0,VALID,25.1442,VALID,337,VALID,0.192188,
2012-04-09, 02:32:05,VALID,1003.46,VALID,0,VALID,84.9018,VALID,0,VALID,25.1229,VALID,333,VALID,0.599609,
2012-04-09, 02:33:05,VALID,1003.45,VALID,0,VALID,84.7569,VALID,0,VALID,25.1637,VALID,330,VALID,0.497656,
2012-04-09, 02:34:05,VALID,1003.47,VALID,0,VALID,84.8332,VALID,0,VALID,25.2027,VALID,11,VALID,0.382031,
2012-04-09, 02:35:05,VALID,1003.47,VALID,0,VALID,84.8179,VALID,0,VALID,25.1813,VALID,346,VALID,0.865625,
2012-04-09, 02:36:05,VALID,1003.47,VALID,0,VALID,84.856,VALID,0,VALID,25.2027,VALID,335,VALID,0.735156,
2012-04-09, 02:37:05,VALID,1003.46,VALID,0,VALID,84.4212,VALID,0,VALID,25.2416,VALID,360,VALID,1.03594,
2012-04-09, 02:38:05,VALID,1003.42,VALID,0,VALID,84.261,VALID,0,VALID,25.2786,VALID,331,VALID,0.669922,
2012-04-09, 02:39:05,VALID,1003.47,VALID,0,VALID,84.2152,VALID,0,VALID,25.339,VALID,351,VALID,0.889844,
2012-04-09, 02:40:05,VALID,1003.43,VALID,0,VALID,84.0703,VALID,0,VALID,25.3584,VALID,354,VALID,1.0668,
2012-04-09, 02:41:05,VALID,1003.49,VALID,0,VALID,84.1694,VALID,0.0815089,VALID,25.376,VALID,356,VALID,0.541797,
2012-04-09, 02:42:05,VALID,1003.48,VALID,0,VALID,83.7575,VALID,0,VALID,25.3955,VALID,347,VALID,1.35586,
2012-04-09, 02:43:05,VALID,1003.49,VALID,0,VALID,83.8033,VALID,0,VALID,25.4363,VALID,349,VALID,0.74375,
2012-04-09, 02:44:05,VALID,1003.49,VALID,0,VALID,83.7193,VALID,0,VALID,25.4753,VALID,334,VALID,0.914844,
2012-04-09, 02:45:05,VALID,1003.51,VALID,0,VALID,83.7498,VALID,0,VALID,25.4753,VALID,352,VALID,0.778125,
2012-04-09, 02:46:05,VALID,1003.49,VALID,0,VALID,83.8109,VALID,0,VALID,25.4753,VALID,344,VALID,0.894141,
2012-04-09, 02:47:05,VALID,1003.44,VALID,0,VALID,83.4676,VALID,0,VALID,25.4948,VALID,352,VALID,1.99727,
2012-04-09, 02:48:05,VALID,1003.43,VALID,0,VALID,83.3684,VALID,0.0815089,VALID,25.5123,VALID,353,VALID,1.67383,
2012-04-09, 02:49:05,VALID,1003.39,VALID,0,VALID,83.4981,VALID,0,VALID,25.5532,VALID,354,VALID,0.626562,
2012-04-09, 02:50:05,VALID,1003.39,VALID,0,VALID,83.4676,VALID,0,VALID,25.5532,VALID,357,VALID,0.801172,
2012-04-09, 02:51:05,VALID,1003.36,VALID,0,VALID,83.4142,VALID,0,VALID,25.5532,VALID,352,VALID,1.1375,
2012-04-09, 02:52:05,VALID,1003.35,VALID,0,VALID,83.2616,VALID,0,VALID,25.5532,VALID,330,VALID,0.923047,
2012-04-09, 02:53:05,VALID,1003.33,VALID,0,VALID,83.2997,VALID,0,VALID,25.5532,VALID,340,VALID,0.876953,
2012-04-09, 02:54:05,VALID,1003.33,VALID,0,VALID,83.46,VALID,0,VALID,25.5727,VALID,352,VALID,0.665234,
2012-04-09, 02:55:05,VALID,1003.31,VALID,0,VALID,83.1167,VALID,0,VALID,25.5532,VALID,344,VALID,1.54727,
2012-04-09, 02:56:05,VALID,1003.32,VALID,0,VALID,83.1777,VALID,0,VALID,25.5727,VALID,332,VALID,0.801953,
2012-04-09, 02:57:05,VALID,1003.35,VALID,0,VALID,83.1243,VALID,0,VALID,25.5727,VALID,339,VALID,0.708984,
2012-04-09, 02:58:05,VALID,1003.34,VALID,0,VALID,83.2616,VALID,0,VALID,25.5532,VALID,334,VALID,0.55625,
2012-04-09, 02:59:05,VALID,1003.39,VALID,0,VALID,83.4676,VALID,0,VALID,25.5337,VALID,334,VALID,0.288281,
2012-04-09, 03:00:05,VALID,1003.38,VALID,0,VALID,83.6354,VALID,0,VALID,25.5142,VALID,337,VALID,0.697266,
2012-04-09, 03:01:05,VALID,1003.47,VALID,0,VALID,83.7193,VALID,0,VALID,25.4948,VALID,338,VALID,0.283203,
2012-04-09, 03:02:05,VALID,1003.48,VALID,0,VALID,83.9253,VALID,0.0815089,VALID,25.4948,VALID,336,VALID,0.209375,
2012-04-09, 03:03:05,VALID,1003.5,VALID,0,VALID,83.994,VALID,0,VALID,25.4753,VALID,317,VALID,0.883984,
2012-04-09, 03:04:05,VALID,1003.54,VALID,0,VALID,84.2305,VALID,0,VALID,25.4753,VALID,292,VALID,0.325391,
2012-04-09, 03:05:05,VALID,1003.55,VALID,0,VALID,84.4899,VALID,0,VALID,25.4539,VALID,283,VALID,0.804688,
2012-04-09, 03:06:05,VALID,1003.56,VALID,0,VALID,84.5814,VALID,0,VALID,25.4753,VALID,360,VALID,1.1625,
2012-04-09, 03:07:05,VALID,1003.55,VALID,0,VALID,84.5738,VALID,0.0815089,VALID,25.4753,VALID,8,VALID,0.5375,
2012-04-09, 03:08:05,VALID,1003.55,VALID,0,VALID,84.6501,VALID,0,VALID,25.4344,VALID,315,VALID,0.429688,
2012-04-09, 03:09:05,VALID,1003.58,VALID,0,VALID,84.6043,VALID,0,VALID,25.4558,VALID,351,VALID,0.959375,
2012-04-09, 03:10:05,VALID,1003.57,VALID,0,VALID,84.6958,VALID,0,VALID,25.4558,VALID,320,VALID,0.246484,
2012-04-09, 03:11:05,VALID,1003.55,VALID,0,VALID,84.8408,VALID,0,VALID,25.4363,VALID,360,VALID,0.241797,
2012-04-09, 03:12:05,VALID,1003.55,VALID,0,VALID,84.9323,VALID,0,VALID,25.376,VALID,359,VALID,0.366406,
2012-04-09, 03:13:05,VALID,1003.55,VALID,0,VALID,85.0544,VALID,0,VALID,25.3565,VALID,340,VALID,0.906641,
2012-04-09, 03:14:05,VALID,1003.66,VALID,0,VALID,85.1917,VALID,0,VALID,25.337,VALID,283,VALID,0.777344,
2012-04-09, 03:15:05,VALID,1003.67,VALID,0,VALID,85.2985,VALID,0,VALID,25.3195,VALID,335,VALID,0.971484,
2012-04-09, 03:16:05,VALID,1003.71,VALID,0,VALID,85.3824,VALID,0,VALID,25.3195,VALID,271,VALID,0.265234,
2012-04-09, 03:17:05,VALID,1003.71,VALID,0,VALID,85.2756,VALID,0,VALID,25.2806,VALID,345,VALID,1.64688,
2012-04-09, 03:18:05,VALID,1003.74,VALID,0,VALID,85.5045,VALID,0,VALID,25.2806,VALID,345,VALID,0.801953,
2012-04-09, 03:19:05,VALID,1003.8,VALID,0,VALID,85.4587,VALID,0,VALID,25.2416,VALID,352,VALID,0.935938,
2012-04-09, 03:20:05,VALID,1003.81,VALID,0,VALID,85.6113,VALID,0,VALID,25.2007,VALID,290,VALID,0.851953,
2012-04-09, 03:21:05,VALID,1003.82,VALID,0,VALID,85.596,VALID,0,VALID,25.1832,VALID,341,VALID,0.642969,
2012-04-09, 03:22:05,VALID,1003.83,VALID,0,VALID,85.9165,VALID,0,VALID,25.1618,VALID,341,VALID,0.312891,
2012-04-09, 03:23:05,VALID,1003.78,VALID,0,VALID,85.9393,VALID,0,VALID,25.1637,VALID,343,VALID,0.149219,
2012-04-09, 03:24:05,VALID,1003.77,VALID,0,VALID,85.947,VALID,0,VALID,25.1442,VALID,329,VALID,0.664844,
2012-04-09, 03:25:05,VALID,1003.81,VALID,0,VALID,85.8707,VALID,0,VALID,25.1034,VALID,305,VALID,0.825391,
2012-04-09, 03:26:05,VALID,1003.77,VALID,0,VALID,85.8936,VALID,0,VALID,25.0858,VALID,354,VALID,1.08984,
2012-04-09, 03:27:05,VALID,1003.78,VALID,0,VALID,86.0614,VALID,0,VALID,25.0663,VALID,353,VALID,0.784375,
2012-04-09, 03:28:05,VALID,1003.76,VALID,0,VALID,86.0538,VALID,0,VALID,25.0469,VALID,345,VALID,0.279687,
2012-04-09, 03:29:05,VALID,1003.76,VALID,0,VALID,86.1987,VALID,0,VALID,25.0274,VALID,311,VALID,0.187891,
2012-04-09, 03:30:05,VALID,1003.76,VALID,0,VALID,86.1758,VALID,0,VALID,25.0274,VALID,304,VALID,0.791406,
2012-04-09, 03:31:05,VALID,1003.74,VALID,0,VALID,86.1224,VALID,0,VALID,25.0293,VALID,291,VALID,0.388281,
2012-04-09, 03:32:05,VALID,1003.74,VALID,0,VALID,85.9927,VALID,0,VALID,24.9885,VALID,291,VALID,0.502734,
2012-04-09, 03:33:05,VALID,1003.69,VALID,0,VALID,86.1606,VALID,0,VALID,24.9885,VALID,297,VALID,0.535937,
2012-04-09, 03:34:05,VALID,1003.64,VALID,0,VALID,85.5884,VALID,0,VALID,24.9476,VALID,348,VALID,0.970312,
2012-04-09, 03:35:05,VALID,1003.6,VALID,0,VALID,85.4892,VALID,0,VALID,24.9495,VALID,300,VALID,0.611719,
2012-04-09, 03:36:05,VALID,1003.61,VALID,0,VALID,85.2756,VALID,0,VALID,24.9106,VALID,351,VALID,0.930078,
2012-04-09, 03:37:05,VALID,1003.57,VALID,0,VALID,85.268,VALID,0,VALID,24.93,VALID,356,VALID,1.02344,
2012-04-09, 03:38:05,VALID,1003.54,VALID,0,VALID,85.1765,VALID,0.0815089,VALID,24.9282,VALID,343,VALID,0.540625,
2012-04-09, 03:39:05,VALID,1003.5,VALID,0,VALID,85.0239,VALID,0.0815089,VALID,24.9087,VALID,333,VALID,0.810156,
2012-04-09, 03:40:05,VALID,1003.51,VALID,0,VALID,85.1078,VALID,0.0815089,VALID,24.8873,VALID,353,VALID,0.464453,
2012-04-09, 03:41:05,VALID,1003.55,VALID,0,VALID,84.8255,VALID,0.0815089,VALID,24.9087,VALID,346,VALID,0.935938,
2012-04-09, 03:42:05,VALID,1003.6,VALID,0,VALID,84.4059,VALID,0,VALID,24.9068,VALID,321,VALID,0.673047,